DW7027 Weather Reports


Display with metric or nautical units.
time (UTC)temp
F
wind
direction
speed
MPH
gust
MPH
rain 1hr
in
rain 24hr
in
rain mn
in
humidity
%
barometer
mb
20260502192205 57 272 1.0 3.0 0.00 0.00 0.00 44 1024.4
20260502191205 58 270 1.0 2.0 0.00 0.00 0.00 43 1024.4
20260502190704 59 291 1.0 2.0 0.00 0.00 0.00 42 1024.4
20260502190205 59 285 1.0 2.0 0.00 0.00 0.00 42 1024.2
20260502185704 60 281 1.0 2.0 0.00 0.00 0.00 42 1024.2
20260502185204 60 299 1.0 2.0 0.00 0.00 0.00 41 1024.4
20260502184705 61 311 1.0 2.0 0.00 0.00 0.00 40 1024.1
20260502183704 62 302 1.0 3.0 0.00 0.00 0.00 38 1024.1
20260502183205 63 284 2.0 3.0 0.00 0.00 0.00 37 1023.9
20260502182704 64 280 1.0 2.0 0.00 0.00 0.00 37 1024.0
20260502182204 65 281 2.0 2.0 0.00 0.00 0.00 36 1023.8
20260502181706 65 286 1.0 2.0 0.00 0.00 0.00 35 1023.6
20260502181205 66 325 1.0 2.0 0.00 0.00 0.00 34 1023.7
20260502170204 74 15 4.0 7.0 0.00 0.00 0.00 28 1023.3
20260502164204 76 23 3.0 7.0 0.00 0.00 0.00 28 1023.3
20260502163704 76 44 5.0 7.0 0.00 0.00 0.00 28 1023.5
20260502163204 76 339 3.0 5.0 0.00 0.00 0.00 28 1023.4
20260502162704 77 36 2.0 6.0 0.00 0.00 0.00 27 1023.5
20260502162204 77 333 2.0 7.0 0.00 0.00 0.00 27 1023.6
20260502161704 77 1 5.0 7.0 0.00 0.00 0.00 28 1023.5
20260502161204 77 43 5.0 7.0 0.00 0.00 0.00 28 1023.7
20260502160704 77 334 2.0 3.0 0.00 0.00 0.00 28 1023.8
20260502160205 77 32 2.0 7.0 0.00 0.00 0.00 28 1023.7
20260502152204 79 276 2.0 8.0 0.00 0.00 0.00 29 1024.0
20260502151204 79 19 5.0 8.0 0.00 0.00 0.00 28 1024.2
20260502150704 79 15 6.0 9.0 0.00 0.00 0.00 29 1024.3
20260502130705 78 325 3.0 8.0 0.00 0.00 0.00 32 1025.6
20260502130204 78 276 4.0 7.0 0.00 0.00 0.00 32 1025.4
20260502123704 78 191 3.0 6.0 0.00 0.00 0.00 32 1026.0
20260502123204 78 321 3.0 8.0 0.00 0.00 0.00 32 1026.1
20260502122704 78 45 3.0 7.0 0.00 0.00 0.00 31 1026.1
20260502122204 78 323 1.0 6.0 0.00 0.00 0.00 32 1026.3
20260502121704 78 264 2.0 5.0 0.00 0.00 0.00 31 1026.2
20260502121205 78 76 4.0 13.0 0.00 0.00 0.00 32 1026.3
20260502120204 77 4 6.0 14.0 0.00 0.00 0.00 31 1026.2
20260502115704 77 339 4.0 8.0 0.00 0.00 0.00 33 1026.5
20260502115204 77 92 3.0 12.0 0.00 0.00 0.00 32 1026.4
20260502114204 77 138 3.0 10.0 0.00 0.00 0.00 32 1026.7
20260502113704 77 111 2.0 12.0 0.00 0.00 0.00 32 1026.7
20260502113204 77 93 3.0 8.0 0.00 0.00 0.00 34 1026.9
20260502112204 76 0 6.0 10.0 0.00 0.00 0.00 34 1027.1
20260502111704 76 6 2.0 5.0 0.00 0.00 0.00 34 1027.1
20260502111205 76 136 1.0 6.0 0.00 0.00 0.00 33 1027.0
20260502110704 76 3 5.0 10.0 0.00 0.00 0.00 34 1027.2
20260502110204 76 329 3.0 8.0 0.00 0.00 0.00 33 1027.3
20260502105204 75 54 5.0 9.0 0.00 0.00 0.00 35 1027.5
20260502104705 75 311 1.0 7.0 0.00 0.00 0.00 36 1027.5
20260502104204 74 342 2.0 6.0 0.00 0.00 0.00 36 1027.6
20260502103706 75 6 4.0 7.0 0.00 0.00 0.00 34 1027.6
20260502103205 75 336 3.0 8.0 0.00 0.00 0.00 36 1027.7
20260502102704 74 306 5.0 8.0 0.00 0.00 0.00 35 1027.8
20260502101704 74 2 4.0 8.0 0.00 0.00 0.00 36 1027.8
20260502101204 74 349 3.0 12.0 0.00 0.00 0.00 34 1027.9
20260502100204 74 320 5.0 8.0 0.00 0.00 0.00 37 1028.1
20260502091204 71 137 5.0 8.0 0.00 0.00 0.00 38 1028.6
20260502090704 72 154 3.0 7.0 0.00 0.00 0.00 39 1028.9
20260502090204 71 312 2.0 5.0 0.00 0.00 0.00 43 1028.9
20260502071204 59 352 3.0 6.0 0.00 0.00 0.00 64 1030.2
20260502070204 58 322 3.0 5.0 0.00 0.00 0.00 68 1030.1
20260502065704 57 329 3.0 5.0 0.00 0.00 0.00 69 1030.4
20260502065204 56 14 2.0 5.0 0.00 0.00 0.00 70 1030.2
20260502064704 56 299 3.0 5.0 0.00 0.00 0.00 72 1030.3
20260502064204 55 0 1.0 3.0 0.00 0.00 0.00 74 1030.4
20260502063704 55 349 2.0 3.0 0.00 0.00 0.00 75 1030.4
20260502063204 54 290 2.0 5.0 0.00 0.00 0.00 76 1030.7
20260502062704 53 37 1.0 5.0 0.00 0.00 0.00 77 1030.7
20260502061204 51 3 2.0 5.0 0.00 0.00 0.00 81 1030.9
20260502060204 49 355 3.0 6.0 0.00 0.00 0.00 84 1030.9
20260502055704 49 327 3.0 6.0 0.00 0.00 0.00 86 1030.8
20260502055204 48 349 3.0 6.0 0.00 0.00 0.00 87 1030.7
20260502054704 47 348 3.0 6.0 0.00 0.00 0.00 87 1030.9
20260502054204 46 351 3.0 6.0 0.00 0.00 0.00 88 1030.8
20260502053705 46 335 2.0 7.0 0.00 0.00 0.00 89 1030.6
20260502053204 45 0 3.0 5.0 0.00 0.00 0.00 89 1030.8
20260502052704 44 2 2.0 5.0 0.00 0.00 0.00 88 1031.1
20260502051704 43 2 2.0 5.0 0.00 0.00 0.00 88 1031.0
20260502051204 42 7 2.0 5.0 0.00 0.00 0.00 88 1031.0
20260502050704 42 303 3.0 6.0 0.00 0.00 0.00 88 1031.1
20260502045704 40 334 1.0 2.0 0.00 0.00 0.00 88 1031.0
20260502045204 40 347 1.0 3.0 0.00 0.00 0.00 87 1030.9
20260502044204 39 359 1.0 3.0 0.00 0.00 0.00 87 1030.9
20260502043705 39 303 1.0 2.0 0.00 0.00 0.00 87 1031.1
20260502043204 39 301 1.0 2.0 0.00 0.00 0.00 86 1031.2
20260502041704 39 289 1.0 2.0 0.00 0.00 0.00 86 1031.1
20260502041204 39 298 1.0 2.0 0.00 0.00 0.00 86 1031.0
20260502040704 39 298 1.0 2.0 0.00 0.00 0.00 86 1031.0
20260502040204 39 316 1.0 2.0 0.00 0.00 0.00 85 1031.0
20260502035704 39 332 1.0 2.0 0.00 0.00 0.00 85 1031.1
20260502035204 39 304 0.0 2.0 0.00 0.00 0.00 85 1030.9
20260502034704 39 302 0.0 2.0 0.00 0.00 0.00 85 1030.8
20260502033704 39 331 1.0 2.0 0.00 0.00 0.00 85 1030.9
20260502033204 39 346 1.0 2.0 0.00 0.00 0.00 84 1031.0
20260502032704 39 322 0.0 2.0 0.00 0.00 0.00 84 1030.8
20260502032204 39 334 1.0 2.0 0.00 0.00 0.00 85 1030.9
20260502031704 40 331 1.0 2.0 0.00 0.00 0.00 85 1030.9
20260502030704 40 324 2.0 3.0 0.00 0.00 0.00 84 1030.6
20260502025704 40 324 2.0 5.0 0.00 0.00 0.00 84 1030.9
20260502025203 40 338 2.0 5.0 0.00 0.00 0.00 84 1030.9
20260502024704 40 330 2.0 3.0 0.00 0.00 0.00 84 1030.8
20260502023704 40 311 1.0 2.0 0.00 0.00 0.00 84 1030.8
20260502023204 40 303 1.0 3.0 0.00 0.00 0.00 84 1030.9
20260502022704 40 292 3.0 6.0 0.00 0.00 0.00 84 1030.8
20260502022204 40 296 3.0 5.0 0.00 0.00 0.00 83 1030.9
20260502021703 40 293 2.0 3.0 0.00 0.00 0.00 83 1030.7
20260502021204 40 275 2.0 2.0 0.00 0.00 0.00 83 1030.8
20260502020704 40 298 1.0 2.0 0.00 0.00 0.00 83 1030.6
20260502015704 41 321 1.0 2.0 0.00 0.00 0.00 82 1030.8
20260502015204 41 316 1.0 2.0 0.00 0.00 0.00 82 1030.7
20260502014704 41 287 1.0 2.0 0.00 0.00 0.00 82 1030.8
20260502014204 41 299 1.0 2.0 0.00 0.00 0.00 82 1030.8
20260502013204 42 356 1.0 2.0 0.00 0.00 0.00 82 1030.7
20260502012704 42 348 2.0 2.0 0.00 0.00 0.00 82 1030.8
20260502012204 41 345 2.0 2.0 0.00 0.00 0.00 81 1030.7
20260502011703 41 338 1.0 3.0 0.00 0.00 0.00 80 1030.9
20260502011204 42 345 2.0 2.0 0.00 0.00 0.00 80 1030.7
20260502010705 42 333 0.0 2.0 0.00 0.00 0.00 80 1030.7
20260502010204 42 324 1.0 2.0 0.00 0.00 0.00 80 1030.9
20260502005704 42 311 0.0 2.0 0.00 0.00 0.00 79 1030.6
20260502005204 42 324 1.0 2.0 0.00 0.00 0.00 79 1030.8
20260502004204 43 347 0.0 2.0 0.00 0.00 0.00 78 1030.8
20260502003204 43 291 1.0 3.0 0.00 0.00 0.00 78 1030.9
20260502002704 43 274 2.0 3.0 0.00 0.00 0.00 78 1031.0
20260502002204 43 339 1.0 3.0 0.00 0.00 0.00 78 1030.9
20260502001204 44 230 1.0 2.0 0.00 0.00 0.00 78 1030.9
20260502000705 44 289 0.0 2.0 0.00 0.00 0.00 78 1031.0
20260502000204 44 350 0.0 3.0 0.00 0.00 0.00 78 1030.8
20260501235704 44 334 2.0 3.0 0.00 0.00 0.00 78 1031.1
20260501235204 44 297 1.0 3.0 0.00 0.00 0.00 78 1030.9
20260501234704 44 305 1.0 5.0 0.00 0.00 0.00 77 1030.7
20260501234204 44 286 1.0 3.0 0.00 0.00 0.00 77 1031.0
20260501233705 44 285 2.0 3.0 0.00 0.00 0.00 77 1030.8
20260501232704 45 307 2.0 2.0 0.00 0.00 0.00 77 1030.8
20260501231704 45 352 3.0 3.0 0.00 0.00 0.00 76 1030.7
20260501230204 44 352 2.0 3.0 0.00 0.00 0.00 73 1030.8
20260501225704 45 293 1.0 2.0 0.00 0.00 0.00 73 1030.9
20260501225204 45 267 0.0 2.0 0.00 0.00 0.00 72 1030.8
20260501224704 45 253 1.0 2.0 0.00 0.00 0.00 72 1030.7
20260501224204 45 279 0.0 3.0 0.00 0.00 0.00 72 1030.9
20260501223704 46 298 1.0 3.0 0.00 0.00 0.00 71 1030.9
20260501223203 46 273 1.0 2.0 0.00 0.00 0.00 71 1030.9
20260501222704 46 293 1.0 2.0 0.00 0.00 0.00 70 1030.8
20260501222204 46 276 0.0 2.0 0.00 0.00 0.00 70 1030.9
20260501221704 46 240 1.0 2.0 0.00 0.00 0.00 69 1030.9
20260501221204 47 341 0.0 2.0 0.00 0.00 0.00 69 1030.8
20260501220704 47 321 1.0 2.0 0.00 0.00 0.00 69 1031.0
20260501220204 47 255 1.0 2.0 0.00 0.00 0.00 69 1030.9
20260501215704 47 293 1.0 3.0 0.00 0.00 0.00 69 1030.9
20260501214203 48 275 1.0 5.0 0.00 0.00 0.00 68 1030.8
20260501213704 48 264 2.0 3.0 0.00 0.00 0.00 68 1030.7
20260501213204 48 334 2.0 3.0 0.00 0.00 0.00 67 1030.7
20260501212704 48 348 1.0 3.0 0.00 0.00 0.00 67 1030.7
20260501212204 48 248 1.0 5.0 0.00 0.00 0.00 67 1030.8
20260501211704 48 336 2.0 3.0 0.00 0.00 0.00 66 1030.8
20260501210704 49 275 2.0 2.0 0.00 0.00 0.00 65 1030.6
20260501210204 49 278 1.0 2.0 0.00 0.00 0.00 65 1030.8
20260501205704 49 351 1.0 2.0 0.00 0.00 0.00 64 1030.6
20260501205204 49 284 1.0 2.0 0.00 0.00 0.00 64 1030.8
20260501204704 50 289 1.0 2.0 0.00 0.00 0.00 63 1030.6
20260501204204 50 333 1.0 2.0 0.00 0.00 0.00 63 1030.5
20260501203704 50 295 1.0 2.0 0.00 0.00 0.00 63 1030.6
20260501203204 51 273 1.0 3.0 0.00 0.00 0.00 62 1030.4
20260501202704 51 279 2.0 3.0 0.00 0.00 0.00 61 1030.6
20260501202204 51 283 1.0 2.0 0.00 0.00 0.00 61 1030.5
20260501201704 51 273 1.0 2.0 0.00 0.00 0.00 60 1030.4
20260501201205 52 282 2.0 2.0 0.00 0.00 0.00 60 1030.5
20260501200705 52 286 2.0 2.0 0.00 0.00 0.00 60 1030.2
20260501200205 52 278 1.0 3.0 0.00 0.00 0.00 60 1030.4
20260501195705 53 281 2.0 3.0 0.00 0.00 0.00 60 1030.3
20260501195205 53 279 1.0 2.0 0.00 0.00 0.00 59 1030.4
20260501194705 53 315 0.0 2.0 0.00 0.00 0.00 58 1030.2
20260501194205 54 349 1.0 2.0 0.00 0.00 0.00 57 1030.1
20260501193705 54 312 1.0 2.0 0.00 0.00 0.00 56 1030.1
20260501193206 55 340 1.0 2.0 0.00 0.00 0.00 56 1030.0
20260501192705 55 290 1.0 2.0 0.00 0.00 0.00 55 1030.1